Tracking 28125 objects as of 4-Oct-2023
HD Live streaming from Space Station
objects crossing your sky now

THORAD AGENA D DEB

Track THORAD AGENA D DEB now!
10-day predictions


NORAD ID: 4857
Int'l Code: 1970-025EM
Perigee: 796.6 km
Apogee: 868.8 km
Inclination: 99.8 °
Period: 101.4 minutes
Semi major axis: 7203 km
RCS: 0.0497 m2 (small)
Launch date: April 8, 1970
Source: United States (US)
Launch site: AIR FORCE WESTERN TEST RANGE (AFWTR)

Note: This is SATELLITE DEBRIS
Your satellite tracking list
Your tracking list is empty




NASA's NSSDC Master Catalog

Two Line Element Set (TLE):
1 04857U 70025EM  23276.12243207  .00004742  00000-0  22273-2 0  9994
2 04857  99.7586  54.5946 0050157   2.3560 357.7840 14.19937110682788
Source of the keplerian elements: AFSPC